Location: Asheville, NC
(35.6000°N, 82.5500°W)
Time: 18:56:02
(UTC-04:00)

N. Korean satellite - Pass Details

Date: 12 December 2017
Orbit: 458 x 513 km, 97.2° (Epoch: 23 April)

Event Time Altitude Azimuth Distance (km) Brightness Sun altitude
Rises 06:30:07 0° 27° (NNE) 2,617 10.4 -12.0°
Reaches altitude 10° 06:32:35 10° 42° (NE) 1,719 9.6 -11.6°
Maximum altitude 06:35:31 22° 95° (E) 1,125 9.4 -11.0°
Drops below altitude 10° 06:38:24 10° 148° (SSE) 1,684 10.2 -10.5°
Sets 06:40:47 0° 164° (SSE) 2,549 10.8 -10.0°
